Location: Kissing
(48.3027°N, 10.9775°E)
Time: 16:39:59
(UTC+00:00)

NPP - Pass Details

Date: 07 June 2020
Orbit: 826 x 828 km, 98.7° (Epoch: 13 July)

Event Time Altitude Azimuth Distance (km) Brightness Sun altitude
Rises 01:10:43 0° 14° (NNE) 3,380 8.5 -14.3°
Reaches altitude 10° 01:13:05 10° 15° (NNE) 2,442 7.4 -14.2°
Maximum altitude 01:18:31 87° 106° (ESE) 835 3.7 -13.7°
Enters shadow 01:22:36 18° 195° (SSW) 1,922 5.0 -13.4°
